TimeCST,TemperatureF,Dew PointF,Humidity,Sea Level PressureIn,VisibilityMPH,Wind Direction,Wind SpeedMPH,Gust SpeedMPH,PrecipitationIn,Events,Conditions,WindDirDegrees,DateUTC
12:15 AM,23.9,21.2,89,30.38,10.0,Calm,Calm,-,N/A,,Mostly Cloudy,0,2013-12-23 06:15:00
12:35 AM,23.2,21.2,92,30.38,10.0,Calm,Calm,-,N/A,,Scattered Clouds,0,2013-12-23 06:35:00
12:55 AM,22.3,20.7,93,30.37,10.0,Calm,Calm,-,N/A,,Clear,0,2013-12-23 06:55:00
1:15 AM,21.6,21.4,99,30.37,10.0,Calm,Calm,-,N/A,,Clear,0,2013-12-23 07:15:00
1:35 AM,20.8,21.0,100,30.38,10.0,Calm,Calm,-,N/A,,Clear,0,2013-12-23 07:35:00
1:55 AM,20.7,20.8,100,30.39,10.0,Calm,Calm,-,N/A,,Clear,0,2013-12-23 07:55:00
2:15 AM,19.9,20.1,100,30.39,10.0,Calm,Calm,-,N/A,,Clear,0,2013-12-23 08:15:00
2:35 AM,18.5,18.9,100,30.39,10.0,Calm,Calm,-,N/A,,Clear,0,2013-12-23 08:35:00
2:55 AM,18.3,18.3,100,30.39,10.0,Calm,Calm,-,N/A,,Clear,0,2013-12-23 08:55:00
3:15 AM,18.1,18.3,100,30.40,10.0,Calm,Calm,-,N/A,,Clear,0,2013-12-23 09:15:00
3:35 AM,-9999,-9999,N/A,30.42,10.0,Calm,Calm,-,N/A,,Clear,0,2013-12-23 09:35:00
3:55 AM,18.7,18.9,100,30.42,10.0,Calm,Calm,-,N/A,,Clear,0,2013-12-23 09:55:00
4:15 AM,18.5,18.9,100,30.42,10.0,Calm,Calm,-,N/A,,Clear,0,2013-12-23 10:15:00
4:35 AM,18.3,18.1,99,30.41,10.0,Calm,Calm,-,N/A,,Clear,0,2013-12-23 10:35:00
4:55 AM,18.1,18.0,99,30.42,10.0,Calm,Calm,-,N/A,,Clear,0,2013-12-23 10:55:00
5:15 AM,18.1,17.6,98,30.42,10.0,Calm,Calm,-,N/A,,Clear,0,2013-12-23 11:15:00
5:35 AM,18.1,17.6,98,30.44,10.0,Calm,Calm,-,N/A,,Clear,0,2013-12-23 11:35:00
5:55 AM,18.1,17.1,96,30.47,10.0,Calm,Calm,-,N/A,,Clear,0,2013-12-23 11:55:00
6:15 AM,18.1,16.3,93,30.46,10.0,Calm,Calm,-,N/A,,Scattered Clouds,0,2013-12-23 12:15:00
6:35 AM,18.1,16.3,93,30.46,10.0,Calm,Calm,-,N/A,,Clear,0,2013-12-23 12:35:00
6:55 AM,18.1,16.0,91,30.47,10.0,NNE,4.6,-,N/A,,Clear,20,2013-12-23 12:55:00
7:15 AM,17.8,15.1,89,30.49,10.0,North,3.5,-,N/A,,Clear,10,2013-12-23 13:15:00
7:35 AM,16.7,13.8,88,30.50,10.0,NNE,4.6,-,N/A,,Clear,20,2013-12-23 13:35:00
7:55 AM,16.3,13.5,88,30.53,10.0,Calm,Calm,-,N/A,,Clear,0,2013-12-23 13:55:00
8:15 AM,17.2,14.5,89,30.54,10.0,Calm,Calm,-,N/A,,Clear,0,2013-12-23 14:15:00
8:35 AM,18.1,15.3,88,30.55,10.0,Calm,Calm,-,N/A,,Scattered Clouds,0,2013-12-23 14:35:00
8:55 AM,18.1,15.3,88,30.56,10.0,NNE,3.5,-,N/A,,Scattered Clouds,30,2013-12-23 14:55:00
9:15 AM,18.1,15.4,89,30.56,10.0,Calm,Calm,-,N/A,,Clear,0,2013-12-23 15:15:00
9:35 AM,18.3,16.0,91,30.56,10.0,NNE,3.5,-,N/A,,Scattered Clouds,20,2013-12-23 15:35:00
9:55 AM,18.5,16.3,91,30.57,10.0,North,3.5,-,N/A,,Clear,360,2013-12-23 15:55:00
10:15 AM,19.6,17.2,91,30.57,10.0,North,4.6,-,N/A,,Scattered Clouds,10,2013-12-23 16:15:00
10:35 AM,20.5,18.1,91,30.57,10.0,NNE,4.6,-,N/A,,Scattered Clouds,20,2013-12-23 16:35:00
10:55 AM,20.7,18.5,91,30.57,10.0,North,5.8,-,N/A,Thunderstorm,Thunderstorm,360,2013-12-23 16:55:00
11:15 AM,20.1,17.8,91,30.57,10.0,North,4.6,-,N/A,,Scattered Clouds,10,2013-12-23 17:15:00
11:35 AM,18.7,15.8,89,30.57,10.0,NNE,5.8,-,N/A,,Scattered Clouds,20,2013-12-23 17:35:00
11:55 AM,18.3,15.1,87,30.57,10.0,NNE,4.6,-,N/A,,Clear,20,2013-12-23 17:55:00
12:15 PM,18.9,16.0,89,30.57,5.0,North,3.5,-,N/A,,Mostly Cloudy,10,2013-12-23 18:15:00
12:35 PM,19.4,16.5,89,30.56,10.0,North,3.5,-,N/A,,Scattered Clouds,10,2013-12-23 18:35:00
12:55 PM,20.7,17.6,88,30.55,10.0,NNE,4.6,-,N/A,,Mostly Cloudy,30,2013-12-23 18:55:00
1:15 PM,20.7,18.0,89,30.56,10.0,Calm,Calm,-,N/A,,Mostly Cloudy,0,2013-12-23 19:15:00
1:35 PM,20.7,18.1,90,30.56,10.0,Calm,Calm,-,N/A,,Mostly Cloudy,0,2013-12-23 19:35:00
1:55 PM,20.5,17.8,89,30.56,10.0,North,5.8,-,N/A,,Mostly Cloudy,10,2013-12-23 19:55:00
2:15 PM,20.7,18.0,89,30.56,4.0,North,4.6,-,N/A,,Mostly Cloudy,350,2013-12-23 20:15:00
2:35 PM,20.5,18.3,91,30.56,7.0,Calm,Calm,-,N/A,,Overcast,0,2013-12-23 20:35:00
2:55 PM,20.7,18.0,89,30.56,10.0,North,3.5,-,N/A,,Overcast,350,2013-12-23 20:55:00
3:15 PM,20.5,17.4,88,30.56,10.0,NNE,3.5,-,N/A,,Mostly Cloudy,20,2013-12-23 21:15:00
3:35 PM,19.9,16.9,88,30.56,10.0,North,3.5,-,N/A,,Mostly Cloudy,350,2013-12-23 21:35:00
3:55 PM,19.8,16.3,87,30.57,10.0,Calm,Calm,-,N/A,,Mostly Cloudy,0,2013-12-23 21:55:00
4:15 PM,20.1,16.9,87,30.57,10.0,Calm,Calm,-,N/A,,Overcast,0,2013-12-23 22:15:00
4:35 PM,20.7,18.1,90,30.56,10.0,Calm,Calm,-,N/A,,Overcast,0,2013-12-23 22:35:00
4:55 PM,19.9,17.2,89,30.56,10.0,Calm,Calm,-,N/A,,Overcast,0,2013-12-23 22:55:00
5:15 PM,18.9,16.5,91,30.56,10.0,Calm,Calm,-,N/A,,Scattered Clouds,0,2013-12-23 23:15:00
5:35 PM,18.1,16.7,94,30.57,10.0,Calm,Calm,-,N/A,,Clear,0,2013-12-23 23:35:00
5:55 PM,18.1,17.1,96,30.58,10.0,Calm,Calm,-,N/A,,Mostly Cloudy,0,2013-12-23 23:55:00
6:15 PM,18.1,17.1,96,30.58,10.0,Calm,Calm,-,N/A,,Mostly Cloudy,0,2013-12-24 00:15:00
6:35 PM,18.1,16.7,94,30.59,10.0,Calm,Calm,-,N/A,,Mostly Cloudy,0,2013-12-24 00:35:00
6:55 PM,18.1,16.9,95,30.59,10.0,Calm,Calm,-,N/A,,Overcast,0,2013-12-24 00:55:00
7:15 PM,18.1,16.5,93,30.59,10.0,Calm,Calm,-,N/A,,Overcast,0,2013-12-24 01:15:00
7:35 PM,18.1,16.3,93,30.59,10.0,Calm,Calm,-,N/A,,Overcast,0,2013-12-24 01:35:00
7:55 PM,18.1,16.2,92,30.60,10.0,Calm,Calm,-,N/A,,Overcast,0,2013-12-24 01:55:00
8:15 PM,18.1,16.3,93,30.60,10.0,NNW,4.6,-,N/A,,Overcast,340,2013-12-24 02:15:00
8:35 PM,18.1,16.0,91,30.60,10.0,NNW,3.5,-,N/A,,Overcast,340,2013-12-24 02:35:00
8:55 PM,17.2,14.9,91,30.61,10.0,Calm,Calm,-,N/A,,Mostly Cloudy,0,2013-12-24 02:55:00
9:15 PM,16.3,14.4,92,30.60,10.0,Calm,Calm,-,N/A,,Mostly Cloudy,0,2013-12-24 03:15:00
9:35 PM,15.6,13.8,93,30.59,10.0,Calm,Calm,-,N/A,,Scattered Clouds,0,2013-12-24 03:35:00
9:55 PM,15.6,14.0,93,30.59,10.0,Calm,Calm,-,N/A,,Clear,0,2013-12-24 03:55:00
10:15 PM,15.6,14.0,93,30.60,10.0,Calm,Calm,-,N/A,,Clear,0,2013-12-24 04:15:00
10:35 PM,15.6,14.4,95,30.60,10.0,Calm,Calm,-,N/A,,Clear,0,2013-12-24 04:35:00
10:55 PM,15.6,14.7,96,30.59,10.0,Calm,Calm,-,N/A,,Clear,0,2013-12-24 04:55:00
11:15 PM,15.6,14.5,95,30.59,10.0,Calm,Calm,-,N/A,,Clear,0,2013-12-24 05:15:00
11:35 PM,13.6,12.6,95,30.59,10.0,Calm,Calm,-,N/A,,Clear,0,2013-12-24 05:35:00
11:55 PM,13.8,12.9,96,30.59,10.0,Calm,Calm,-,N/A,,Clear,0,2013-12-24 05:55:00